Regional Weather Roundup
Issued by NWS

Home | Current Version | Previous Version | Text Only | Print | Product List | Glossary On
Versions: 1 2 3 4 5 6 7 8 9 10 11 12 13 14 15 16 17 18 19 20 21 22 23 24 25 26 27 28 29 30 31 32 33 34 35 36 37 38 39 40 41 42 43 44 45 46 47 48 49 50
000
ASCA44 KEWX 300420
RWRMX

LATIN AMERICA AND CARIBBEAN REGIONAL WEATHER ROUNDUP
NATIONAL WEATHER SERVICE AUSTIN/SAN ANTONIO TX
1100 PM CDT WED JUL 29 2015

NOTE: "FAIR" INDICATED FEW OR NO CLOUDS BELOW 12,000 FEET WITH NO
SIGNIFICANT WEATHER AND/OR OBSTRUCTIONS TO VISIBILITY.

BAJA CALIFORNIA

CITY           SKY/WX    TMP DP  RH WIND       PRES   REMARKS
LA PAZ         CLEAR     84  68  58 S9        29.90R
MEXICALI       PTCLDY    91  63  38 SE7       29.86R HX  92
S.J. DEL CABO  CLEAR     84  68  58 W5        29.90R
TIJUANA        MOCLDY    70  61  73 NW8       29.98R

NORTHWESTERN MEXICO

CITY           SKY/WX    TMP DP  RH WIND       PRES   REMARKS
CULIACAN       CLOUDY    90  77  66 W9        29.87R HX 102
HERMOSILLO     MOCLDY    88  73  62 CALM      29.94R HX  96
CD. JUAREZ       N/A    N/A N/A N/A MISG        N/A
LOS MOCHIS       N/A    N/A N/A N/A MISG        N/A
OBREGON          N/A    N/A N/A N/A MISG        N/A

NORTHEASTERN MEXICO

CITY           SKY/WX    TMP DP  RH WIND       PRES   REMARKS
CHIHUAHUA      MOCLDY    72  57  60 W8        30.21R
MONCLOVA         N/A    N/A N/A N/A MISG        N/A
MONTERREY      CLEAR     84  63  48 E14       30.00R
PIEDRAS NEGRAS   N/A    N/A N/A N/A MISG        N/A
REYNOSA        CLEAR     79  72  78 SE12      30.01R
SALTILLO       CLEAR     77  61  57 N9        30.22R
TORREON        PTCLDY    90  54  29 NE5       30.08R
CD. VICTORIA   CLEAR     84  68  58 S9        30.01R

WESTERN MEXICO

CITY           SKY/WX    TMP DP  RH WIND       PRES   REMARKS
AGUASCALIENTES MOCLDY    70  48  46 NE12      30.28R
DEL BAJIO      PTCLDY    68  52  56 SE7       30.31R
GUADALAJARA    PTCLDY    68  61  77 S5        30.16R
MAZATLAN       CLOUDY    82  73  74 NW8       29.84S
P. VALLARTA    MOCLDY    84  79  84 NE2       29.85S HX  96
ZACATECAS        N/A    N/A N/A N/A MISG        N/A

CENTRAL MEXICO

CITY           SKY/WX    TMP DP  RH WIND       PRES   REMARKS
MEXICO CITY    PTCLDY    66  52  59 NW9       30.39R
PUEBLA         PTCLDY    61  54  77 NW5       30.40R
QUERETARO      PTCLDY    63  54  72 E7        30.37R
S. LUIS POTOSI CLEAR     63  46  55 NE7       30.32R
TAMPICO        CLEAR     82  77  83 E7        30.02R HX  91
TOLUCA         PTCLDY    61  50  67 E12       30.45R

SOUTHERN MEXICO

CITY           SKY/WX    TMP DP  RH WIND       PRES   REMARKS
ACAPULCO       MOCLDY    84  81  89 W6        29.87R HX  98
OAXACA         MOCLDY    72  43  35 NW6       30.30R
VERACRUZ       PTCLDY    82  77  83 CALM      30.04R HX  91
ZIHUATANEJO      N/A    N/A N/A N/A MISG        N/A

YUCATAN PENINSULA

CITY           SKY/WX    TMP DP  RH WIND       PRES   REMARKS
CANCUN         PTCLDY    79  77  94 NE2       30.04S
CHETUMAL       PTCLDY    84  75  74 CALM      30.03R HX  92
COZUMEL        PTCLDY    75  75 100 CALM      30.04S
MERIDA         PTCLDY    82  75  78 NE12      30.03R
TAPACHULA      PTCLDY    82  79  89 CALM      29.92R HX  93
TUX. GUTIERREZ MOCLDY    79  66  65 NW6       29.99R
VILLAHERMOSA   MOCLDY    79  72  78 E9        30.01R

CENTRAL AMERICA

CITY           SKY/WX    TMP DP  RH WIND       PRES   REMARKS
MANAGUA        PTCLDY    81  72  74 SE5       29.89S

CARIBBEAN

CITY           SKY/WX    TMP DP  RH WIND       PRES   REMARKS
ARUBA          PTCLDY    82  75  78 E14       29.94S
CURACAO        PTCLDY    81  73  78 E9        29.97S
KINGSTON       PTCLDY    84  73  70 SE14      30.00S HX  91
SAN JUAN       PTCLDY    82  73  74 E13       30.07R
SANTO DOMINGO  PTCLDY    81  73  78 E6        30.03S
ST. CROIX      CLEAR     81  72  74 E10       30.05S
ST. THOMAS     PTCLDY    82  72  69 E14       30.05

$$




USA.gov is the U.S. government's official web portal to all federal, state and local government web resources and services.